Terug naar catalogus

SL-8 R/B

ActiefUNKNOWN
NORAD 9013·ROCKET BODY·🇷🇺 Russia

Gelanceerd Jul 8, 1976 vanaf Plesetsk Cosmodrome

Loading…

Volgende Passages (komende 24 uur)

TLE

VersSource: Space-Track

Epoch: Sep 14, 2026, 01:01 UTC

1 09013U 76067B   26257.04277222 -.00000035  00000-0  66407-4 0  9993
2 09013  65.8623 291.4031 0716071 191.8005 166.5401 12.35417693263297

Volg SL-8 R/B in realtime met AllMySat

Download on the App Store